UAE7772 OMDB-FACT

Flight info

Callsign UAE7772
Flight time N/A
Altitude 37000
Route ANVIX R401 GIDIS G783 UKRAG L710 KUKDI/N0491F360 B400 VEDET UL437 EGTUL/N0487F380 UL437 ROVUM/N0482F400 UL437 VBU UP305 XOXAM UT969 ESPUV DCT UDGIM UQ60 NEXIT UQ23 OKLOK DCT ERDAS ERDAS1C
Aircraft B772/H-SDE2E3FGHIJ5LORVWXY/LB1D1

Departure

Time 2026-04-24 05:07
Airport Dubai International Airport (OMDB)

Arrival

Time N/A
Airport Cape Town International Airport (FACT)
Time Latitude Longitude Altitude Speed Heading
2026-04-24 04:23 25.24822 55.36020 27 ft 0 kts 31°
2026-04-24 04:49 25.24817 55.36017 27 ft 2 kts 31°
2026-04-24 04:49 25.24805 55.36008 27 ft 2 kts 31°
2026-04-24 04:49 25.24792 55.36000 27 ft 2 kts 31°
2026-04-24 04:50 25.24779 55.35991 27 ft 2 kts 31°
2026-04-24 04:50 25.24766 55.35983 27 ft 2 kts 31°
2026-04-24 04:50 25.24753 55.35974 27 ft 2 kts 31°
2026-04-24 04:50 25.24740 55.35966 27 ft 2 kts 31°
2026-04-24 04:51 25.24727 55.35957 27 ft 2 kts 31°
2026-04-24 04:51 25.24714 55.35949 27 ft 2 kts 37°
2026-04-24 04:51 25.24704 55.35936 27 ft 2 kts 62°
2026-04-24 04:51 25.24698 55.35921 27 ft 2 kts 81°
2026-04-24 04:52 25.24698 55.35905 27 ft 2 kts 100°
2026-04-24 04:52 25.24703 55.35890 27 ft 1 kts 119°
2026-04-24 04:52 25.24705 55.35885 27 ft 0 kts 122°
2026-04-24 04:55 25.24703 55.35888 27 ft 1 kts 122°
2026-04-24 04:55 25.24697 55.35899 27 ft 2 kts 122°
2026-04-24 04:56 25.24686 55.35918 27 ft 3 kts 122°
2026-04-24 04:56 25.24664 55.35957 27 ft 9 kts 121°
2026-04-24 04:56 25.24620 55.36037 27 ft 13 kts 121°
2026-04-24 04:56 25.24572 55.36129 27 ft 14 kts 118°
2026-04-24 04:57 25.24547 55.36232 27 ft 14 kts 100°
2026-04-24 04:57 25.24535 55.36340 27 ft 13 kts 112°
2026-04-24 04:57 25.24487 55.36433 27 ft 14 kts 121°
2026-04-24 04:57 25.24450 55.36534 27 ft 14 kts 98°
2026-04-24 04:58 25.24477 55.36645 30 ft 16 kts 50°
2026-04-24 04:58 25.24565 55.36721 32 ft 15 kts 30°
2026-04-24 04:58 25.24659 55.36780 32 ft 15 kts 30°
2026-04-24 04:58 25.24731 55.36827 32 ft 5 kts 47°
2026-04-24 04:59 25.24732 55.36876 33 ft 7 kts 112°
2026-04-24 04:59 25.24716 55.36911 35 ft 7 kts 117°
2026-04-24 04:59 25.24701 55.36940 36 ft 6 kts 122°
2026-04-24 05:00 25.24657 55.37016 36 ft 17 kts 122°
2026-04-24 05:00 25.24575 55.37159 36 ft 23 kts 121°
2026-04-24 05:00 25.24497 55.37317 36 ft 22 kts 118°
2026-04-24 05:00 25.24433 55.37472 36 ft 22 kts 96°
2026-04-24 05:01 25.24417 55.37632 40 ft 19 kts 110°
2026-04-24 05:01 25.24355 55.37751 44 ft 17 kts 120°
2026-04-24 05:01 25.24282 55.37882 46 ft 20 kts 122°
2026-04-24 05:01 25.24208 55.38017 47 ft 22 kts 121°
2026-04-24 05:02 25.24122 55.38172 48 ft 23 kts 122°
2026-04-24 05:02 25.24040 55.38321 49 ft 22 kts 120°
2026-04-24 05:02 25.23964 55.38467 49 ft 21 kts 119°
2026-04-24 05:02 25.23887 55.38608 49 ft 21 kts 127°
2026-04-24 05:03 25.23807 55.38738 49 ft 20 kts 118°
2026-04-24 05:03 25.23773 55.38799 49 ft 20 kts 122°
2026-04-24 05:03 25.23727 55.38880 49 ft 19 kts 121°
2026-04-24 05:03 25.23656 55.39008 49 ft 19 kts 121°
2026-04-24 05:04 25.23588 55.39132 49 ft 18 kts 121°
2026-04-24 05:04 25.23515 55.39262 49 ft 21 kts 121°
2026-04-24 05:04 25.23457 55.39369 49 ft 10 kts 115°
2026-04-24 05:04 25.23455 55.39423 49 ft 5 kts 47°
2026-04-24 05:05 25.23491 55.39450 49 ft 6 kts 32°
2026-04-24 05:05 25.23537 55.39480 49 ft 8 kts 27°
2026-04-24 05:05 25.23593 55.39473 49 ft 9 kts 321°
2026-04-24 05:05 25.23632 55.39417 49 ft 9 kts 301°
2026-04-24 05:06 25.23699 55.39296 49 ft 39 kts 300°
2026-04-24 05:06 25.23984 55.38783 49 ft 113 kts 301°
2026-04-24 05:06 25.24513 55.37834 48 ft 174 kts 303°
2026-04-24 05:06 25.25179 55.36623 524 ft 188 kts 301°
2026-04-24 05:07 25.25824 55.35307 1156 ft 206 kts 296°
2026-04-24 05:07 25.26413 55.33870 1846 ft 211 kts 296°
2026-04-24 05:07 25.27043 55.32308 2118 ft 230 kts 297°
2026-04-24 05:07 25.27530 55.30559 2413 ft 252 kts 272°
2026-04-24 05:08 25.27034 55.28631 2721 ft 271 kts 235°
2026-04-24 05:08 25.25584 55.27339 3265 ft 278 kts 200°
2026-04-24 05:08 25.23672 55.27004 3979 ft 277 kts 182°
2026-04-24 05:08 25.21761 55.26966 4714 ft 276 kts 181°
2026-04-24 05:09 25.19831 55.26946 5462 ft 276 kts 182°
2026-04-24 05:09 25.17936 55.26928 6211 ft 274 kts 182°
2026-04-24 05:09 25.16033 55.26934 6873 ft 276 kts 176°
2026-04-24 05:09 25.14191 55.27558 7436 ft 284 kts 150°
2026-04-24 05:10 25.12738 55.29082 7936 ft 294 kts 125°
2026-04-24 05:10 25.11737 55.31043 8590 ft 296 kts 119°
2026-04-24 05:10 25.10799 55.33067 9185 ft 299 kts 119°
2026-04-24 05:10 25.09899 55.35142 9704 ft 305 kts 115°
2026-04-24 05:11 25.09040 55.37315 10311 ft 307 kts 115°
2026-04-24 05:11 25.08182 55.39446 10940 ft 308 kts 116°
2026-04-24 05:11 25.07300 55.41601 11528 ft 310 kts 116°
2026-04-24 05:11 25.06427 55.43814 11886 ft 322 kts 114°
2026-04-24 05:12 25.05538 55.46150 12085 ft 339 kts 114°
2026-04-24 05:12 25.04599 55.48606 12284 ft 356 kts 114°
2026-04-24 05:12 25.03615 55.51164 12487 ft 372 kts 114°
2026-04-24 05:12 25.02580 55.53850 12681 ft 387 kts 114°
2026-04-24 05:13 24.99931 55.59218 13291 ft 406 kts 122°
2026-04-24 05:13 24.98503 55.61859 13872 ft 408 kts 122°
2026-04-24 05:13 24.97039 55.64564 14512 ft 409 kts 122°
2026-04-24 05:14 24.95575 55.67269 15017 ft 412 kts 122°
2026-04-24 05:14 24.94087 55.69957 15485 ft 416 kts 126°
2026-04-24 05:14 24.92394 55.72573 16042 ft 418 kts 128°
2026-04-24 05:14 24.90687 55.75146 16572 ft 421 kts 128°
2026-04-24 05:15 24.88959 55.77747 17080 ft 424 kts 128°
2026-04-24 05:15 24.87218 55.80368 17612 ft 426 kts 128°
2026-04-24 05:15 24.85448 55.83033 18113 ft 430 kts 128°
2026-04-24 05:15 24.84143 55.84998 18470 ft 432 kts 128°
2026-04-24 05:16 24.82266 55.87609 18931 ft 435 kts 135°
2026-04-24 05:16 24.80021 55.89862 19373 ft 436 kts 145°
2026-04-24 05:16 24.77479 55.91647 19823 ft 437 kts 155°
2026-04-24 05:16 24.74678 55.92939 20302 ft 437 kts 165°
2026-04-24 05:17 24.71729 55.93686 20767 ft 437 kts 174°
2026-04-24 05:17 24.68651 55.93874 21216 ft 437 kts 184°
2026-04-24 05:17 24.65611 55.93702 21691 ft 438 kts 188°
2026-04-24 05:17 24.62623 55.93093 22108 ft 439 kts 198°
2026-04-24 05:18 24.59779 55.91953 22524 ft 439 kts 207°
2026-04-24 05:18 24.57098 55.90275 22962 ft 438 kts 217°
2026-04-24 05:18 24.54722 55.88203 23394 ft 439 kts 223°
2026-04-24 05:18 24.52419 55.86007 23820 ft 442 kts 223°
2026-04-24 05:19 24.50078 55.83760 24261 ft 444 kts 223°
2026-04-24 05:19 24.47759 55.81532 24623 ft 448 kts 223°
2026-04-24 05:19 24.45390 55.79256 24995 ft 451 kts 223°
2026-04-24 05:19 24.43018 55.76979 25373 ft 454 kts 223°
2026-04-24 05:20 24.40633 55.74689 25729 ft 456 kts 224°
2026-04-24 05:20 24.38247 55.72399 26067 ft 459 kts 224°
2026-04-24 05:20 24.35838 55.70088 26409 ft 462 kts 223°
2026-04-24 05:20 24.33425 55.67773 26701 ft 465 kts 224°
2026-04-24 05:21 24.30968 55.65418 27041 ft 467 kts 223°
2026-04-24 05:21 24.28473 55.63113 27350 ft 471 kts 219°
2026-04-24 05:21 24.25679 55.61158 27625 ft 477 kts 210°
2026-04-24 05:21 24.22631 55.59694 27873 ft 483 kts 201°
2026-04-24 05:22 24.19422 55.58645 28139 ft 487 kts 198°
2026-04-24 05:22 24.16116 55.57658 28452 ft 489 kts 198°
2026-04-24 05:22 24.12848 55.56686 28728 ft 491 kts 198°
2026-04-24 05:22 24.09513 55.55695 28984 ft 494 kts 198°
2026-04-24 05:23 24.06187 55.54704 29255 ft 496 kts 198°
2026-04-24 05:23 24.02860 55.53713 29534 ft 498 kts 198°
2026-04-24 05:23 23.99482 55.52708 29813 ft 500 kts 198°
2026-04-24 05:23 23.96112 55.51707 30086 ft 502 kts 198°
2026-04-24 05:24 23.92713 55.50699 30366 ft 504 kts 198°
2026-04-24 05:24 23.89319 55.49692 30722 ft 504 kts 198°
2026-04-24 05:24 23.85881 55.48674 31145 ft 502 kts 199°
2026-04-24 05:24 23.82506 55.47673 31563 ft 500 kts 199°
2026-04-24 05:25 23.79146 55.46675 32011 ft 498 kts 199°
2026-04-24 05:25 23.75779 55.45676 32406 ft 496 kts 199°
2026-04-24 05:25 23.72428 55.44682 32725 ft 496 kts 199°
2026-04-24 05:25 23.69092 55.43693 33051 ft 496 kts 199°
2026-04-24 05:26 23.65763 55.42706 33413 ft 495 kts 199°
2026-04-24 05:26 23.62452 55.41725 33709 ft 495 kts 199°
2026-04-24 05:26 23.59107 55.40734 33985 ft 495 kts 200°
2026-04-24 05:26 23.55740 55.39821 34255 ft 498 kts 194°
2026-04-24 05:27 23.52281 55.39400 34487 ft 504 kts 186°
2026-04-24 05:27 23.48753 55.39550 34740 ft 510 kts 177°
2026-04-24 05:27 23.45257 55.40251 34882 ft 515 kts 170°
2026-04-24 05:28 23.38298 55.42312 34892 ft 515 kts 167°
2026-04-24 05:28 23.31430 55.44523 34887 ft 516 kts 167°
2026-04-24 05:29 23.24505 55.46735 34894 ft 517 kts 167°
2026-04-24 05:29 23.17586 55.48931 34892 ft 518 kts 167°
2026-04-24 05:30 23.10666 55.51120 34892 ft 517 kts 167°
2026-04-24 05:30 23.03699 55.53316 34889 ft 517 kts 167°
2026-04-24 05:31 22.96780 55.55454 34896 ft 517 kts 168°
2026-04-24 05:31 22.89777 55.57601 34893 ft 516 kts 168°
2026-04-24 05:32 22.82810 55.59737 34889 ft 519 kts 168°
2026-04-24 05:32 22.75820 55.61879 34886 ft 518 kts 168°
2026-04-24 05:33 22.68845 55.64013 34892 ft 520 kts 168°
2026-04-24 05:33 22.61876 55.66144 34893 ft 519 kts 168°
2026-04-24 05:34 22.51407 55.69348 34893 ft 522 kts 168°
2026-04-24 05:34 22.44449 55.71476 34889 ft 520 kts 168°
2026-04-24 05:35 22.37422 55.73621 34894 ft 524 kts 167°
2026-04-24 05:35 22.30390 55.75767 34895 ft 522 kts 168°
2026-04-24 05:36 22.23320 55.77390 34902 ft 519 kts 178°
2026-04-24 05:36 22.16112 55.78125 34897 ft 518 kts 179°
2026-04-24 05:37 22.08969 55.78831 34898 ft 517 kts 179°
2026-04-24 05:37 22.01734 55.79546 34897 ft 520 kts 179°
2026-04-24 05:38 21.94564 55.80257 34897 ft 516 kts 179°
2026-04-24 05:38 21.87328 55.80973 34888 ft 520 kts 179°
2026-04-24 05:39 21.80114 55.81688 34887 ft 519 kts 179°
2026-04-24 05:39 21.72938 55.82399 34886 ft 518 kts 179°
2026-04-24 05:40 21.65736 55.83109 34887 ft 519 kts 179°
2026-04-24 05:40 21.58537 55.83816 34885 ft 518 kts 179°
2026-04-24 05:41 21.51317 55.84524 34886 ft 519 kts 178°
2026-04-24 05:41 21.44098 55.85231 34886 ft 520 kts 179°
2026-04-24 05:42 21.36879 55.85939 34888 ft 520 kts 179°
2026-04-24 05:42 21.29690 55.86642 34889 ft 519 kts 178°
2026-04-24 05:43 21.22478 55.87346 34889 ft 521 kts 179°
2026-04-24 05:43 21.15226 55.88052 34891 ft 520 kts 178°
2026-04-24 05:44 21.08027 55.88753 34890 ft 520 kts 178°
2026-04-24 05:44 21.00801 55.89456 34891 ft 520 kts 178°
2026-04-24 05:45 20.93616 55.90154 34891 ft 519 kts 178°
2026-04-24 05:45 20.86388 55.90855 34889 ft 520 kts 178°
2026-04-24 05:46 20.79154 55.91556 34885 ft 522 kts 178°
2026-04-24 05:46 20.71913 55.92259 34887 ft 519 kts 178°
2026-04-24 05:47 20.64664 55.92960 34893 ft 522 kts 178°
2026-04-24 05:47 20.57413 55.93662 34896 ft 522 kts 178°
2026-04-24 05:48 20.50198 55.94360 34898 ft 522 kts 178°
2026-04-24 05:48 20.42915 55.95063 34898 ft 522 kts 178°
2026-04-24 05:49 20.35669 55.95761 34900 ft 524 kts 178°
2026-04-24 05:49 20.28403 55.96460 34905 ft 524 kts 178°
2026-04-24 05:50 20.21088 55.97156 34905 ft 525 kts 178°
2026-04-24 05:50 20.13794 55.97850 34908 ft 524 kts 178°
2026-04-24 05:51 20.06521 55.98516 34908 ft 525 kts 181°
2026-04-24 05:51 19.99221 55.98687 34913 ft 523 kts 182°
2026-04-24 05:52 19.91904 55.98828 34917 ft 523 kts 182°
2026-04-24 05:52 19.84642 55.98986 34910 ft 524 kts 182°
2026-04-24 05:53 19.77308 55.99156 34910 ft 525 kts 182°
2026-04-24 05:53 19.70033 55.99331 34906 ft 523 kts 182°
2026-04-24 05:54 19.62876 55.99505 34914 ft 525 kts 182°
2026-04-24 05:54 19.55525 55.99573 34906 ft 521 kts 188°
2026-04-24 05:55 19.48513 55.97976 34911 ft 511 kts 206°
2026-04-24 05:55 19.42192 55.94608 34916 ft 506 kts 214°
2026-04-24 05:56 19.36093 55.90952 34912 ft 502 kts 215°
2026-04-24 05:56 19.29996 55.87278 34916 ft 506 kts 215°
2026-04-24 05:57 19.23895 55.83597 34915 ft 502 kts 215°
2026-04-24 05:57 19.17785 55.79907 34916 ft 505 kts 215°
2026-04-24 05:58 19.11671 55.76217 34920 ft 503 kts 215°
2026-04-24 05:58 19.05563 55.72531 34920 ft 504 kts 215°
2026-04-24 05:59 18.99439 55.68837 34921 ft 507 kts 215°
2026-04-24 05:59 18.93350 55.65170 34925 ft 506 kts 215°
2026-04-24 06:00 18.87224 55.61483 34917 ft 504 kts 215°
2026-04-24 06:00 18.81109 55.57805 34915 ft 506 kts 215°
2026-04-24 06:01 18.74988 55.54127 34915 ft 503 kts 216°
2026-04-24 06:01 18.68885 55.50461 34916 ft 505 kts 216°
2026-04-24 06:02 18.62758 55.46785 34919 ft 504 kts 215°
2026-04-24 06:02 18.56668 55.43135 34917 ft 505 kts 215°
2026-04-24 06:03 18.50527 55.39456 34923 ft 505 kts 216°
2026-04-24 06:03 18.44450 55.35819 34919 ft 504 kts 215°
2026-04-24 06:04 18.38287 55.32133 34935 ft 507 kts 215°
2026-04-24 06:04 18.32192 55.28493 34938 ft 504 kts 215°
2026-04-24 06:05 18.26057 55.24831 34939 ft 506 kts 215°
2026-04-24 06:05 18.19958 55.21196 34938 ft 505 kts 215°
2026-04-24 06:06 18.13757 55.17595 34938 ft 509 kts 210°
2026-04-24 06:06 18.07226 55.14613 34950 ft 512 kts 208°
2026-04-24 06:07 18.00670 55.11676 34949 ft 511 kts 208°
2026-04-24 06:07 17.94116 55.08739 34952 ft 510 kts 209°
2026-04-24 06:08 17.87598 55.05818 34952 ft 510 kts 209°
2026-04-24 06:08 17.81034 55.02877 34957 ft 511 kts 209°
2026-04-24 06:09 17.74491 54.99948 34975 ft 511 kts 209°
2026-04-24 06:09 17.67932 54.97013 34977 ft 509 kts 209°
2026-04-24 06:10 17.61426 54.94104 34992 ft 513 kts 209°
2026-04-24 06:11 17.51632 54.89731 35005 ft 510 kts 209°
2026-04-24 06:11 17.45048 54.86792 35020 ft 509 kts 209°
2026-04-24 06:12 17.38547 54.83893 35041 ft 511 kts 209°
2026-04-24 06:12 17.31983 54.80969 35055 ft 510 kts 209°
2026-04-24 06:13 17.25579 54.77786 35073 ft 504 kts 218°
2026-04-24 06:13 17.19686 54.73868 35047 ft 501 kts 219°
2026-04-24 06:14 17.13818 54.69932 35006 ft 503 kts 219°
2026-04-24 06:14 17.07946 54.66001 34966 ft 500 kts 219°
2026-04-24 06:15 17.02072 54.62072 34937 ft 502 kts 219°
2026-04-24 06:15 16.96175 54.58131 34923 ft 504 kts 219°
2026-04-24 06:16 16.90278 54.54196 34921 ft 501 kts 219°
2026-04-24 06:16 16.84368 54.50252 34910 ft 505 kts 219°
2026-04-24 06:17 16.78512 54.46349 34905 ft 502 kts 219°
2026-04-24 06:17 16.72580 54.42395 34907 ft 504 kts 219°
2026-04-24 06:18 16.66686 54.38472 34905 ft 503 kts 219°
2026-04-24 06:18 16.60768 54.34535 34909 ft 502 kts 219°
2026-04-24 06:19 16.54885 54.30624 34918 ft 503 kts 219°
2026-04-24 06:19 16.48957 54.26686 34920 ft 503 kts 219°
2026-04-24 06:20 16.43041 54.22759 34917 ft 503 kts 219°
2026-04-24 06:20 16.37130 54.18838 34920 ft 505 kts 219°
2026-04-24 06:21 16.31223 54.14924 34916 ft 504 kts 219°
2026-04-24 06:21 16.25309 54.11007 34915 ft 501 kts 219°
2026-04-24 06:22 16.19420 54.07108 34917 ft 504 kts 219°
2026-04-24 06:22 16.13529 54.03214 34918 ft 502 kts 219°
2026-04-24 06:23 16.07606 53.99298 34914 ft 504 kts 219°
2026-04-24 06:23 16.01705 53.95401 34917 ft 505 kts 219°
2026-04-24 06:24 15.95766 53.91482 34918 ft 504 kts 219°
2026-04-24 06:24 15.89849 53.87580 34919 ft 503 kts 219°
2026-04-24 06:25 15.83940 53.83655 34905 ft 506 kts 219°
2026-04-24 06:25 15.78024 53.79697 34906 ft 504 kts 219°
2026-04-24 06:26 15.72147 53.75768 34905 ft 505 kts 219°
2026-04-24 06:26 15.66228 53.71816 34905 ft 504 kts 219°
2026-04-24 06:27 15.60334 53.67883 34905 ft 503 kts 219°
2026-04-24 06:27 15.54441 53.63954 34906 ft 505 kts 219°
2026-04-24 06:28 15.48517 53.60006 34904 ft 505 kts 219°
2026-04-24 06:28 15.42611 53.56078 34905 ft 506 kts 219°
2026-04-24 06:29 15.36610 53.52223 34906 ft 506 kts 218°
2026-04-24 06:29 15.30623 53.48393 34908 ft 507 kts 218°
2026-04-24 06:30 15.24635 53.44562 34908 ft 504 kts 218°
2026-04-24 06:30 15.18670 53.40744 34906 ft 507 kts 218°
2026-04-24 06:31 15.12678 53.36911 34906 ft 506 kts 218°
2026-04-24 06:31 15.06685 53.33079 34919 ft 506 kts 218°
2026-04-24 06:32 15.00667 53.29233 34918 ft 505 kts 218°
2026-04-24 06:32 14.94706 53.25426 34920 ft 506 kts 218°
2026-04-24 06:33 14.88686 53.21584 34911 ft 507 kts 218°
2026-04-24 06:33 14.82704 53.17767 34909 ft 506 kts 218°
2026-04-24 06:34 14.76707 53.13945 34909 ft 507 kts 218°
2026-04-24 06:34 14.70688 53.10110 34911 ft 508 kts 218°
2026-04-24 06:35 14.64688 53.06290 34909 ft 505 kts 218°
2026-04-24 06:35 14.58672 53.02422 34908 ft 509 kts 218°
2026-04-24 06:36 14.52707 52.98589 34909 ft 505 kts 218°
2026-04-24 06:36 14.46710 52.94738 34909 ft 508 kts 218°
2026-04-24 06:37 14.40698 52.90881 34910 ft 509 kts 218°
2026-04-24 06:37 14.34713 52.87044 34911 ft 508 kts 218°
2026-04-24 06:38 14.28703 52.83194 34911 ft 507 kts 218°
2026-04-24 06:38 14.22699 52.79350 34911 ft 508 kts 218°
2026-04-24 06:39 14.16702 52.75513 34911 ft 507 kts 218°
2026-04-24 06:39 14.10682 52.71664 34911 ft 507 kts 218°
2026-04-24 06:40 14.04668 52.67821 34911 ft 506 kts 218°
2026-04-24 06:40 13.98665 52.63987 34912 ft 508 kts 218°
2026-04-24 06:41 13.92658 52.60154 34911 ft 507 kts 218°
2026-04-24 06:41 13.86666 52.56332 34900 ft 507 kts 218°
2026-04-24 06:42 13.80653 52.52498 34903 ft 510 kts 218°
2026-04-24 06:42 13.74620 52.48655 34900 ft 508 kts 218°
2026-04-24 06:43 13.68632 52.44844 34903 ft 508 kts 218°
2026-04-24 06:43 13.62616 52.41015 34902 ft 509 kts 218°
2026-04-24 06:44 13.56593 52.37185 34902 ft 509 kts 218°
2026-04-24 06:44 13.50532 52.33334 34910 ft 510 kts 218°
2026-04-24 06:45 13.44498 52.29502 34914 ft 510 kts 218°
2026-04-24 06:45 13.38467 52.25674 34911 ft 508 kts 217°
2026-04-24 06:46 13.32454 52.21869 34911 ft 512 kts 217°
2026-04-24 06:46 13.26415 52.18053 34915 ft 509 kts 217°
2026-04-24 06:47 13.20358 52.14227 34915 ft 512 kts 217°
2026-04-24 06:47 13.14255 52.10374 34915 ft 511 kts 217°
2026-04-24 06:48 13.08229 52.06573 34914 ft 510 kts 217°
2026-04-24 06:48 13.02174 52.02754 34915 ft 511 kts 217°
2026-04-24 06:49 12.96111 51.98933 34916 ft 511 kts 217°
2026-04-24 06:49 12.90019 51.95095 34916 ft 512 kts 217°
2026-04-24 06:50 12.83952 51.91277 34904 ft 511 kts 217°
2026-04-24 06:50 12.77889 51.87461 34894 ft 511 kts 217°
2026-04-24 06:51 12.71844 51.83661 34898 ft 510 kts 217°
2026-04-24 06:51 12.65787 51.79854 34891 ft 511 kts 217°
2026-04-24 06:52 12.59709 51.76037 34894 ft 511 kts 217°
2026-04-24 06:52 12.53656 51.72237 34892 ft 511 kts 217°
2026-04-24 06:53 12.47583 51.68427 34900 ft 510 kts 217°
2026-04-24 06:53 12.41503 51.64614 34892 ft 512 kts 217°
2026-04-24 06:54 12.35469 51.60834 34893 ft 510 kts 217°
2026-04-24 06:54 12.29356 51.57004 34889 ft 514 kts 217°
2026-04-24 06:55 12.23301 51.53214 34890 ft 512 kts 217°
2026-04-24 06:55 12.17198 51.49395 34888 ft 512 kts 217°
2026-04-24 06:56 12.11106 51.45587 34888 ft 512 kts 217°
2026-04-24 06:56 12.04994 51.41767 34885 ft 513 kts 217°
2026-04-24 06:57 11.98951 51.37991 34886 ft 512 kts 217°
2026-04-24 06:57 11.92869 51.34190 34892 ft 513 kts 217°
2026-04-24 06:58 11.86737 51.30360 34887 ft 512 kts 217°
2026-04-24 06:58 11.80685 51.26582 34886 ft 513 kts 217°
2026-04-24 06:59 11.74581 51.22773 34889 ft 512 kts 217°
2026-04-24 06:59 11.68500 51.18981 34894 ft 512 kts 217°
2026-04-24 07:00 11.62404 51.15182 34906 ft 513 kts 217°
2026-04-24 07:00 11.56325 51.11395 34911 ft 513 kts 217°
2026-04-24 07:01 11.50200 51.07582 34935 ft 513 kts 217°
2026-04-24 07:01 11.44105 51.03789 34948 ft 512 kts 217°
2026-04-24 07:02 11.38002 50.99992 34962 ft 513 kts 217°
2026-04-24 07:02 11.31925 50.96207 34973 ft 511 kts 217°
2026-04-24 07:03 11.25842 50.92419 34979 ft 513 kts 217°
2026-04-24 07:03 11.19739 50.88620 34973 ft 513 kts 217°
2026-04-24 07:04 11.13691 50.84858 34958 ft 511 kts 217°
2026-04-24 07:04 11.07588 50.81064 34962 ft 513 kts 217°
2026-04-24 07:05 11.01480 50.77269 34963 ft 512 kts 217°
2026-04-24 07:05 10.95402 50.73494 34965 ft 512 kts 217°
2026-04-24 07:06 10.89310 50.69712 34964 ft 511 kts 216°
2026-04-24 07:06 10.83255 50.65955 34960 ft 510 kts 217°
2026-04-24 07:07 10.77174 50.62184 34956 ft 509 kts 217°
2026-04-24 07:07 10.68085 50.56549 34966 ft 511 kts 216°
2026-04-24 07:08 10.62005 50.52784 34963 ft 509 kts 216°
2026-04-24 07:08 10.55922 50.49018 34967 ft 511 kts 216°
2026-04-24 07:09 10.49855 50.45262 34959 ft 511 kts 216°
2026-04-24 07:09 10.43795 50.41514 34961 ft 510 kts 216°
2026-04-24 07:10 10.37734 50.37767 34962 ft 510 kts 216°
2026-04-24 07:10 10.31646 50.34005 34971 ft 510 kts 216°
2026-04-24 07:11 10.25584 50.30260 34974 ft 509 kts 216°
2026-04-24 07:11 10.19525 50.26519 34978 ft 509 kts 216°
2026-04-24 07:12 10.13484 50.22790 34987 ft 509 kts 216°
2026-04-24 07:12 10.07429 50.19055 34989 ft 509 kts 216°
2026-04-24 07:13 10.01372 50.15321 35006 ft 508 kts 216°
2026-04-24 07:13 9.95287 50.11570 35000 ft 510 kts 216°
2026-04-24 07:14 9.89206 50.07824 35002 ft 509 kts 216°
2026-04-24 07:14 9.83154 50.04096 35000 ft 510 kts 216°
2026-04-24 07:15 9.77104 50.00373 35007 ft 509 kts 216°
2026-04-24 07:15 9.71016 49.96627 35007 ft 510 kts 216°
2026-04-24 07:16 9.64972 49.92910 35005 ft 509 kts 216°
2026-04-24 07:16 9.58911 49.89183 35002 ft 509 kts 216°
2026-04-24 07:17 9.52832 49.85448 35000 ft 510 kts 216°
2026-04-24 07:17 9.46761 49.81720 35001 ft 509 kts 216°
2026-04-24 07:18 9.40717 49.78009 34997 ft 509 kts 216°
2026-04-24 07:18 9.34651 49.74286 34993 ft 509 kts 216°
2026-04-24 07:19 9.28580 49.70561 34995 ft 510 kts 215°
2026-04-24 07:19 9.22480 49.66821 34993 ft 509 kts 215°
2026-04-24 07:20 9.16423 49.63110 34997 ft 508 kts 215°
2026-04-24 07:20 9.10365 49.59400 34994 ft 510 kts 215°
2026-04-24 07:21 9.04278 49.55674 34996 ft 509 kts 215°
2026-04-24 07:21 8.98250 49.51985 34995 ft 509 kts 215°
2026-04-24 07:22 8.92195 49.48281 35003 ft 508 kts 215°
2026-04-24 07:22 8.86108 49.44559 34997 ft 509 kts 215°
2026-04-24 07:23 8.80060 49.40862 34996 ft 509 kts 215°
2026-04-24 07:23 8.73977 49.37145 34996 ft 509 kts 215°
2026-04-24 07:24 8.67892 49.33429 35000 ft 510 kts 214°
2026-04-24 07:24 8.61817 49.29721 34996 ft 509 kts 214°
2026-04-24 07:25 8.55743 49.26017 34986 ft 510 kts 214°
2026-04-24 07:25 8.49642 49.22298 34978 ft 510 kts 214°
2026-04-24 07:26 8.43556 49.18589 34980 ft 510 kts 214°
2026-04-24 07:26 8.37501 49.14901 34975 ft 510 kts 214°
2026-04-24 07:27 8.31401 49.11188 34979 ft 509 kts 214°
2026-04-24 07:27 8.25345 49.07501 34978 ft 511 kts 214°
2026-04-24 07:28 8.19232 49.03782 34978 ft 509 kts 214°
2026-04-24 07:28 8.13168 49.00093 34985 ft 510 kts 214°
2026-04-24 07:29 8.07075 48.96389 34987 ft 510 kts 214°
2026-04-24 07:29 8.00990 48.92691 34990 ft 509 kts 214°
2026-04-24 07:30 7.94905 48.88994 34983 ft 510 kts 214°
2026-04-24 07:30 7.88798 48.85285 34981 ft 511 kts 214°
2026-04-24 07:31 7.82737 48.81605 34974 ft 510 kts 214°
2026-04-24 07:31 7.76621 48.77893 34974 ft 510 kts 214°
2026-04-24 07:32 7.70560 48.74215 34968 ft 510 kts 214°
2026-04-24 07:32 7.64474 48.70524 34960 ft 511 kts 214°
2026-04-24 07:33 7.58390 48.66835 34962 ft 510 kts 214°
2026-04-24 07:33 7.52293 48.63139 34951 ft 510 kts 214°
2026-04-24 07:34 7.46179 48.59435 34945 ft 510 kts 214°
2026-04-24 07:34 7.40127 48.55769 34937 ft 510 kts 214°
2026-04-24 07:35 7.34018 48.52070 34938 ft 511 kts 214°
2026-04-24 07:35 7.27958 48.48338 34933 ft 509 kts 214°
2026-04-24 07:36 7.21922 48.44609 34928 ft 510 kts 214°
2026-04-24 07:36 7.15867 48.40871 34930 ft 508 kts 214°
2026-04-24 07:37 7.09793 48.37125 34926 ft 511 kts 214°
2026-04-24 07:37 7.03722 48.33382 34921 ft 510 kts 214°
2026-04-24 07:38 6.97673 48.29655 34924 ft 509 kts 214°
2026-04-24 07:38 6.91593 48.25909 34919 ft 509 kts 214°
2026-04-24 07:39 6.85629 48.22237 34915 ft 509 kts 214°
2026-04-24 07:39 6.79603 48.18527 34914 ft 510 kts 214°
2026-04-24 07:40 6.73512 48.14778 34916 ft 509 kts 214°
2026-04-24 07:40 6.67467 48.11059 34913 ft 508 kts 214°
2026-04-24 07:41 6.61417 48.07338 34913 ft 508 kts 214°
2026-04-24 07:41 6.55373 48.03622 34910 ft 508 kts 214°
2026-04-24 07:42 6.49331 47.99908 34907 ft 509 kts 214°
2026-04-24 07:42 6.43317 47.96212 34905 ft 507 kts 214°
2026-04-24 07:43 6.37266 47.92495 34905 ft 508 kts 214°
2026-04-24 07:43 6.31245 47.88797 34902 ft 507 kts 214°
2026-04-24 07:44 6.25243 47.85112 34899 ft 507 kts 214°
2026-04-24 07:44 6.19191 47.81397 34896 ft 506 kts 214°
2026-04-24 07:45 6.13204 47.77723 34896 ft 506 kts 214°
2026-04-24 07:45 6.07186 47.74030 34891 ft 506 kts 213°
2026-04-24 07:46 6.01155 47.70331 34892 ft 506 kts 213°
2026-04-24 07:46 5.95156 47.66653 34894 ft 505 kts 213°
2026-04-24 07:47 5.89140 47.62965 34891 ft 505 kts 213°
2026-04-24 07:47 5.83121 47.59276 34888 ft 506 kts 213°
2026-04-24 07:48 5.77105 47.55590 34886 ft 505 kts 213°
2026-04-24 07:48 5.71104 47.51913 34890 ft 506 kts 213°
2026-04-24 07:49 5.65095 47.48234 34888 ft 505 kts 213°
2026-04-24 07:49 5.59089 47.44602 34889 ft 505 kts 213°
2026-04-24 07:50 5.53050 47.40958 34889 ft 505 kts 213°
2026-04-24 07:50 5.47005 47.37310 34890 ft 505 kts 213°
2026-04-24 07:51 5.40943 47.33652 34892 ft 505 kts 213°
2026-04-24 07:51 5.34917 47.30015 34891 ft 505 kts 213°
2026-04-24 07:52 5.28912 47.26392 34892 ft 504 kts 213°
2026-04-24 07:52 5.22866 47.22745 34892 ft 505 kts 213°
2026-04-24 07:53 5.16870 47.19129 34893 ft 504 kts 213°
2026-04-24 07:53 5.10825 47.15483 34892 ft 505 kts 213°
2026-04-24 07:54 5.04804 47.11854 34893 ft 505 kts 213°
2026-04-24 07:54 4.98765 47.08214 34893 ft 505 kts 213°
2026-04-24 07:55 4.92728 47.04577 34892 ft 505 kts 213°
2026-04-24 07:55 4.86677 47.00931 34889 ft 504 kts 213°
2026-04-24 07:56 4.80684 46.97321 34890 ft 505 kts 213°
2026-04-24 07:56 4.74655 46.93691 34888 ft 505 kts 213°
2026-04-24 07:57 4.68628 46.90062 34890 ft 505 kts 213°
2026-04-24 07:57 4.62565 46.86412 34893 ft 505 kts 213°
2026-04-24 07:58 4.56559 46.82798 34891 ft 505 kts 213°
2026-04-24 07:58 4.50535 46.79173 34891 ft 505 kts 213°
2026-04-24 07:59 4.44506 46.75546 34889 ft 505 kts 213°
2026-04-24 07:59 4.38474 46.71918 34889 ft 504 kts 213°
2026-04-24 08:00 4.32454 46.68298 34889 ft 505 kts 213°
2026-04-24 08:00 4.26412 46.64665 34891 ft 505 kts 213°
2026-04-24 08:01 4.20373 46.61035 34889 ft 505 kts 213°
2026-04-24 08:01 4.14356 46.57418 34892 ft 504 kts 213°
2026-04-24 08:02 4.08304 46.53781 34895 ft 505 kts 213°
2026-04-24 08:02 4.02304 46.50177 34896 ft 505 kts 213°
2026-04-24 08:03 3.96247 46.46538 34896 ft 505 kts 213°
2026-04-24 08:03 3.90226 46.42922 34896 ft 504 kts 213°
2026-04-24 08:04 3.84212 46.39310 34891 ft 504 kts 213°
2026-04-24 08:04 3.78195 46.35698 34892 ft 503 kts 213°
2026-04-24 08:05 3.72170 46.32081 34893 ft 503 kts 213°
2026-04-24 08:05 3.66144 46.28464 34896 ft 502 kts 213°
2026-04-24 08:06 3.60129 46.24854 34897 ft 502 kts 213°
2026-04-24 08:06 3.54157 46.21270 34902 ft 501 kts 213°
2026-04-24 08:07 3.48174 46.17681 34900 ft 501 kts 213°
2026-04-24 08:07 3.42153 46.14070 34899 ft 501 kts 213°
2026-04-24 08:08 3.36163 46.10477 34902 ft 500 kts 213°
2026-04-24 08:09 3.27194 46.05099 34902 ft 501 kts 213°
2026-04-24 08:09 3.21215 46.01514 34898 ft 500 kts 213°
2026-04-24 08:10 3.15229 45.97926 34899 ft 501 kts 213°
2026-04-24 08:10 3.09265 45.94351 34899 ft 499 kts 213°
2026-04-24 08:11 3.03283 45.90766 34895 ft 500 kts 213°
2026-04-24 08:11 2.97305 45.87184 34894 ft 499 kts 213°
2026-04-24 08:12 2.91372 45.83629 34891 ft 498 kts 213°
2026-04-24 08:12 2.85421 45.80064 34886 ft 498 kts 213°
2026-04-24 08:13 2.79440 45.76482 34889 ft 497 kts 213°
2026-04-24 08:13 2.73505 45.72927 34890 ft 497 kts 213°
2026-04-24 08:14 2.67595 45.69388 34890 ft 496 kts 213°
2026-04-24 08:14 2.61645 45.65825 34887 ft 496 kts 213°
2026-04-24 08:15 2.55738 45.62288 34887 ft 495 kts 213°
2026-04-24 08:15 2.49810 45.58740 34883 ft 495 kts 212°
2026-04-24 08:16 2.43867 45.55182 34882 ft 495 kts 213°
2026-04-24 08:16 2.37968 45.51651 34882 ft 494 kts 213°
2026-04-24 08:17 2.32065 45.48119 34881 ft 494 kts 212°
2026-04-24 08:17 2.26130 45.44567 34880 ft 494 kts 212°
2026-04-24 08:18 2.20228 45.41036 34880 ft 493 kts 212°
2026-04-24 08:18 2.14366 45.37529 34877 ft 493 kts 213°
2026-04-24 08:19 2.08450 45.33989 34878 ft 493 kts 212°
2026-04-24 08:19 2.02932 45.30689 34875 ft 492 kts 212°
2026-04-24 08:20 1.97144 45.27062 34878 ft 491 kts 216°
2026-04-24 08:20 1.91486 45.23201 34872 ft 491 kts 216°
2026-04-24 08:21 1.85839 45.19365 34869 ft 491 kts 216°
2026-04-24 08:21 1.80192 45.15541 34866 ft 491 kts 216°
2026-04-24 08:22 1.74534 45.11718 34864 ft 491 kts 216°
2026-04-24 08:22 1.68841 45.07875 34863 ft 491 kts 215°
2026-04-24 08:23 1.63197 45.04067 34861 ft 491 kts 216°
2026-04-24 08:23 1.57519 45.00238 34862 ft 491 kts 216°
2026-04-24 08:24 1.51865 44.96426 34858 ft 491 kts 215°
2026-04-24 08:24 1.46171 44.92588 34859 ft 491 kts 215°
2026-04-24 08:25 1.40513 44.88773 34858 ft 491 kts 215°
2026-04-24 08:25 1.34859 44.84963 34857 ft 491 kts 215°
2026-04-24 08:26 1.29196 44.81146 34859 ft 491 kts 215°
2026-04-24 08:26 1.23536 44.77331 34855 ft 491 kts 215°
2026-04-24 08:27 1.17846 44.73497 34854 ft 491 kts 215°
2026-04-24 08:27 1.12186 44.69683 34857 ft 491 kts 215°
2026-04-24 08:28 1.06517 44.65863 34855 ft 491 kts 215°
2026-04-24 08:28 1.00870 44.62058 34853 ft 491 kts 215°
2026-04-24 08:29 0.95194 44.58234 34855 ft 491 kts 215°
2026-04-24 08:29 0.89529 44.54417 34856 ft 490 kts 215°
2026-04-24 08:30 0.83884 44.50613 34854 ft 490 kts 215°
2026-04-24 08:30 0.78209 44.46791 34856 ft 490 kts 215°
2026-04-24 08:31 0.72545 44.42975 34853 ft 490 kts 215°
2026-04-24 08:31 0.66876 44.39156 34853 ft 490 kts 215°
2026-04-24 08:32 0.61230 44.35352 34855 ft 490 kts 215°
2026-04-24 08:32 0.55571 44.31540 34855 ft 490 kts 215°
2026-04-24 08:33 0.49911 44.27728 34856 ft 490 kts 215°
2026-04-24 08:33 0.44250 44.23915 34854 ft 490 kts 215°
2026-04-24 08:34 0.38586 44.20099 34854 ft 490 kts 215°
2026-04-24 08:34 0.32920 44.16283 34853 ft 490 kts 216°
2026-04-24 08:35 0.27286 44.12475 34855 ft 490 kts 216°
2026-04-24 08:35 0.21635 44.08650 34851 ft 490 kts 216°
2026-04-24 08:36 0.16012 44.04844 34850 ft 490 kts 216°
2026-04-24 08:36 0.10358 44.01018 34852 ft 490 kts 216°
2026-04-24 08:37 0.04695 43.97185 34850 ft 490 kts 216°
2026-04-24 08:37 -0.00966 43.93355 34850 ft 490 kts 216°
2026-04-24 08:38 -0.06615 43.89532 34854 ft 490 kts 216°
2026-04-24 08:38 -0.12279 43.85699 34850 ft 490 kts 216°
2026-04-24 08:39 -0.17906 43.81892 34852 ft 490 kts 216°
2026-04-24 08:39 -0.23556 43.78068 34853 ft 491 kts 216°
2026-04-24 08:40 -0.29203 43.74247 34855 ft 490 kts 216°
2026-04-24 08:40 -0.34861 43.70419 34854 ft 490 kts 216°
2026-04-24 08:41 -0.40529 43.66583 34860 ft 490 kts 216°
2026-04-24 08:41 -0.46170 43.62765 34859 ft 490 kts 216°
2026-04-24 08:42 -0.51813 43.58947 34862 ft 490 kts 216°
2026-04-24 08:42 -0.57467 43.55121 34861 ft 490 kts 216°
2026-04-24 08:43 -0.63093 43.51313 34863 ft 489 kts 216°
2026-04-24 08:43 -0.68764 43.47475 34863 ft 489 kts 216°
2026-04-24 08:44 -0.74399 43.43661 34863 ft 489 kts 216°
2026-04-24 08:44 -0.80031 43.39849 34865 ft 489 kts 216°
2026-04-24 08:45 -0.85681 43.36025 34865 ft 489 kts 216°
2026-04-24 08:45 -0.91281 43.32235 34870 ft 488 kts 216°
2026-04-24 08:46 -0.96919 43.28419 34868 ft 488 kts 216°
2026-04-24 08:46 -1.02553 43.24605 34867 ft 488 kts 216°
2026-04-24 08:47 -1.08159 43.20810 34867 ft 488 kts 216°
2026-04-24 08:47 -1.13808 43.16986 34865 ft 488 kts 216°
2026-04-24 08:48 -1.19436 43.13176 34865 ft 488 kts 216°
2026-04-24 08:48 -1.25053 43.09372 34864 ft 488 kts 216°
2026-04-24 08:49 -1.30686 43.05558 34862 ft 488 kts 216°
2026-04-24 08:49 -1.36330 43.01737 34861 ft 488 kts 216°
2026-04-24 08:50 -1.41952 42.97930 34860 ft 488 kts 216°
2026-04-24 08:50 -1.47596 42.94108 34861 ft 489 kts 216°
2026-04-24 08:51 -1.53214 42.90303 34858 ft 489 kts 216°
2026-04-24 08:51 -1.58840 42.86492 34858 ft 488 kts 216°
2026-04-24 08:52 -1.64443 42.82698 34857 ft 488 kts 216°
2026-04-24 08:52 -1.70105 42.78862 34856 ft 488 kts 216°
2026-04-24 08:53 -1.75729 42.75052 34856 ft 489 kts 216°
2026-04-24 08:53 -1.81357 42.71239 34857 ft 489 kts 216°
2026-04-24 08:54 -1.86978 42.67431 34854 ft 489 kts 216°
2026-04-24 08:54 -1.92629 42.63602 34854 ft 489 kts 216°
2026-04-24 08:55 -1.98256 42.59789 34857 ft 489 kts 216°
2026-04-24 08:55 -2.03866 42.55948 34855 ft 489 kts 216°
2026-04-24 08:56 -2.09464 42.52059 34858 ft 489 kts 216°
2026-04-24 08:56 -2.15077 42.48163 34858 ft 490 kts 216°
2026-04-24 08:57 -2.20664 42.44286 34861 ft 490 kts 216°
2026-04-24 08:57 -2.26219 42.40288 34858 ft 489 kts 218°
2026-04-24 08:58 -2.31658 42.36256 34861 ft 490 kts 218°
2026-04-24 08:58 -2.37167 42.32181 34864 ft 490 kts 218°
2026-04-24 08:59 -2.42644 42.28135 34866 ft 490 kts 218°
2026-04-24 08:59 -2.48160 42.24063 34868 ft 490 kts 218°
2026-04-24 09:00 -2.53633 42.20024 34868 ft 490 kts 218°
2026-04-24 09:00 -2.59142 42.15959 34868 ft 490 kts 218°
2026-04-24 09:01 -2.64636 42.11905 34867 ft 491 kts 218°
2026-04-24 09:01 -2.70132 42.07849 34869 ft 491 kts 218°
2026-04-24 09:02 -2.75594 42.03819 34869 ft 491 kts 218°
2026-04-24 09:02 -2.81112 41.99747 34869 ft 491 kts 218°
2026-04-24 09:03 -2.86612 41.95687 34872 ft 491 kts 218°
2026-04-24 09:03 -2.92128 41.91615 34870 ft 492 kts 218°
2026-04-24 09:04 -2.97606 41.87570 34870 ft 491 kts 218°
2026-04-24 09:04 -3.03146 41.83480 34870 ft 492 kts 218°
2026-04-24 09:05 -3.08618 41.79439 34869 ft 492 kts 218°
2026-04-24 09:05 -3.14135 41.75364 34866 ft 492 kts 218°
2026-04-24 09:06 -3.19638 41.71299 34866 ft 492 kts 218°
2026-04-24 09:06 -3.25173 41.67210 34866 ft 492 kts 218°
2026-04-24 09:07 -3.30660 41.63156 34866 ft 492 kts 218°
2026-04-24 09:07 -3.38914 41.57056 34866 ft 491 kts 218°
2026-04-24 09:08 -3.44406 41.52996 34867 ft 492 kts 218°
2026-04-24 09:08 -3.49910 41.48927 34867 ft 491 kts 218°
2026-04-24 09:09 -3.55415 41.44857 34866 ft 491 kts 218°
2026-04-24 09:09 -3.60917 41.40788 34866 ft 491 kts 218°
2026-04-24 09:10 -3.66417 41.36721 34867 ft 491 kts 218°
2026-04-24 09:10 -3.71921 41.32649 34869 ft 490 kts 218°
2026-04-24 09:11 -3.77383 41.28608 34870 ft 490 kts 218°
2026-04-24 09:11 -3.82875 41.24544 34870 ft 490 kts 218°
2026-04-24 09:12 -3.88367 41.20480 34869 ft 490 kts 218°
2026-04-24 09:12 -3.93831 41.16436 34870 ft 489 kts 218°
2026-04-24 09:13 -3.99328 41.12400 34863 ft 489 kts 215°
2026-04-24 09:13 -4.05164 41.08791 34870 ft 490 kts 213°
2026-04-24 09:14 -4.10999 41.05243 34869 ft 490 kts 213°
2026-04-24 09:14 -4.16809 41.01707 34869 ft 490 kts 213°
2026-04-24 09:15 -4.22643 40.98153 34869 ft 489 kts 213°
2026-04-24 09:15 -4.28455 40.94611 34869 ft 489 kts 213°
2026-04-24 09:16 -4.34289 40.91053 34870 ft 489 kts 213°
2026-04-24 09:16 -4.40096 40.87512 34873 ft 489 kts 213°
2026-04-24 09:17 -4.45895 40.83974 34872 ft 489 kts 213°
2026-04-24 09:17 -4.51745 40.80404 34869 ft 488 kts 213°
2026-04-24 09:18 -4.57537 40.76870 34871 ft 488 kts 213°
2026-04-24 09:18 -4.63344 40.73325 34872 ft 488 kts 213°
2026-04-24 09:19 -4.69136 40.69789 34873 ft 487 kts 213°
2026-04-24 09:19 -4.74949 40.66239 34875 ft 487 kts 213°
2026-04-24 09:20 -4.80735 40.62705 34874 ft 487 kts 213°
2026-04-24 09:20 -4.86167 40.58686 34873 ft 486 kts 219°
2026-04-24 09:21 -4.91493 40.54490 34876 ft 486 kts 219°
2026-04-24 09:21 -4.96822 40.50294 34878 ft 486 kts 219°
2026-04-24 09:22 -5.02108 40.46133 34877 ft 485 kts 219°
2026-04-24 09:22 -5.07447 40.41931 34878 ft 485 kts 219°
2026-04-24 09:23 -5.12755 40.37758 34875 ft 485 kts 218°
2026-04-24 09:23 -5.18392 40.33969 34883 ft 486 kts 214°
2026-04-24 09:24 -5.24021 40.30266 34881 ft 485 kts 214°
2026-04-24 09:24 -5.29669 40.26523 34883 ft 485 kts 214°
2026-04-24 09:25 -5.35308 40.22772 34885 ft 485 kts 214°
2026-04-24 09:25 -5.40910 40.19038 34883 ft 484 kts 214°
2026-04-24 09:26 -5.46538 40.15281 34884 ft 484 kts 214°
2026-04-24 09:26 -5.52121 40.11550 34887 ft 481 kts 214°
2026-04-24 09:27 -5.57708 40.07816 34887 ft 482 kts 214°
2026-04-24 09:27 -5.63310 40.04070 34891 ft 483 kts 214°
2026-04-24 09:28 -5.68904 40.00328 34888 ft 483 kts 214°
2026-04-24 09:28 -5.74491 39.96589 34887 ft 483 kts 214°
2026-04-24 09:29 -5.80085 39.92845 34893 ft 484 kts 214°
2026-04-24 09:29 -5.85702 39.89085 34890 ft 483 kts 214°
2026-04-24 09:30 -5.91294 39.85340 34891 ft 483 kts 214°
2026-04-24 09:30 -5.96896 39.81588 34889 ft 483 kts 214°
2026-04-24 09:31 -6.02505 39.77830 34892 ft 484 kts 214°
2026-04-24 09:31 -6.08126 39.74063 34899 ft 484 kts 214°
2026-04-24 09:32 -6.13698 39.70328 34896 ft 483 kts 214°
2026-04-24 09:32 -6.19331 39.66551 34895 ft 484 kts 214°
2026-04-24 09:33 -6.24926 39.62798 34893 ft 484 kts 214°
2026-04-24 09:33 -6.30514 39.59012 34898 ft 484 kts 214°
2026-04-24 09:34 -6.36089 39.55213 34898 ft 483 kts 214°
2026-04-24 09:34 -6.41685 39.51400 34893 ft 484 kts 214°
2026-04-24 09:35 -6.47235 39.47619 34901 ft 483 kts 214°
2026-04-24 09:35 -6.52806 39.43823 34899 ft 484 kts 214°
2026-04-24 09:36 -6.58381 39.40023 34906 ft 482 kts 214°
2026-04-24 09:36 -6.63952 39.36225 34901 ft 483 kts 214°
2026-04-24 09:37 -6.69522 39.32426 34904 ft 482 kts 214°
2026-04-24 09:37 -6.75087 39.28631 34906 ft 482 kts 214°
2026-04-24 09:38 -6.80665 39.24825 34907 ft 482 kts 214°
2026-04-24 09:38 -6.86260 39.21007 34913 ft 483 kts 214°
2026-04-24 09:39 -6.91749 39.17134 34917 ft 482 kts 217°
2026-04-24 09:39 -6.97109 39.13031 34919 ft 482 kts 217°
2026-04-24 09:40 -7.02440 39.08962 34924 ft 481 kts 217°
2026-04-24 09:40 -7.07811 39.04874 34922 ft 483 kts 217°
2026-04-24 09:41 -7.13172 39.00799 34931 ft 483 kts 217°
2026-04-24 09:41 -7.18540 38.96721 34927 ft 482 kts 217°
2026-04-24 09:42 -7.23883 38.92662 34931 ft 482 kts 217°
2026-04-24 09:42 -7.29249 38.88586 34936 ft 482 kts 217°
2026-04-24 09:43 -7.34644 38.84488 34938 ft 482 kts 217°
2026-04-24 09:43 -7.39973 38.80438 34933 ft 483 kts 217°
2026-04-24 09:44 -7.45365 38.76339 34941 ft 482 kts 217°
2026-04-24 09:44 -7.50712 38.72274 34940 ft 482 kts 217°
2026-04-24 09:45 -7.56088 38.68184 34937 ft 482 kts 217°
2026-04-24 09:45 -7.61418 38.64129 34938 ft 482 kts 217°
2026-04-24 09:46 -7.66795 38.60036 34935 ft 482 kts 216°
2026-04-24 09:46 -7.72166 38.55947 34943 ft 483 kts 217°
2026-04-24 09:47 -7.77494 38.51890 34938 ft 482 kts 217°
2026-04-24 09:47 -7.82855 38.47805 34942 ft 482 kts 216°
2026-04-24 09:48 -7.88207 38.43727 34939 ft 482 kts 216°
2026-04-24 09:48 -7.93569 38.39639 34944 ft 482 kts 216°
2026-04-24 09:49 -7.98944 38.35540 34947 ft 482 kts 216°
2026-04-24 09:49 -8.04297 38.31456 34945 ft 482 kts 216°
2026-04-24 09:50 -8.09642 38.27378 34947 ft 482 kts 216°
2026-04-24 09:50 -8.15008 38.23282 34956 ft 481 kts 216°
2026-04-24 09:51 -8.20349 38.19202 34960 ft 481 kts 216°
2026-04-24 09:51 -8.25707 38.15108 34967 ft 481 kts 216°
2026-04-24 09:52 -8.31063 38.11013 34975 ft 482 kts 216°
2026-04-24 09:52 -8.36407 38.06925 34976 ft 481 kts 216°
2026-04-24 09:53 -8.41716 38.02863 34986 ft 480 kts 216°
2026-04-24 09:53 -8.47049 37.98780 34992 ft 480 kts 216°
2026-04-24 09:54 -8.52389 37.94691 35003 ft 480 kts 216°
2026-04-24 09:54 -8.57705 37.90619 35010 ft 480 kts 216°
2026-04-24 09:55 -8.63034 37.86536 35001 ft 480 kts 216°
2026-04-24 09:55 -8.68356 37.82457 35009 ft 480 kts 216°
2026-04-24 09:56 -8.73666 37.78384 34998 ft 479 kts 216°
2026-04-24 09:56 -8.78969 37.74317 35003 ft 479 kts 216°
2026-04-24 09:57 -8.84294 37.70231 35003 ft 479 kts 216°
2026-04-24 09:57 -8.89619 37.66142 35008 ft 479 kts 216°
2026-04-24 09:58 -8.94929 37.62064 35007 ft 478 kts 216°
2026-04-24 09:58 -9.00222 37.57998 35010 ft 479 kts 216°
2026-04-24 09:59 -9.05557 37.53898 35024 ft 477 kts 216°
2026-04-24 09:59 -9.10864 37.49817 35023 ft 477 kts 216°
2026-04-24 10:00 -9.16145 37.45756 35018 ft 478 kts 216°
2026-04-24 10:00 -9.21449 37.41675 35021 ft 478 kts 216°
2026-04-24 10:01 -9.26725 37.37614 35019 ft 477 kts 216°
2026-04-24 10:01 -9.32015 37.33540 35016 ft 476 kts 216°
2026-04-24 10:02 -9.37278 37.29486 35016 ft 475 kts 216°
2026-04-24 10:02 -9.42558 37.25417 35023 ft 475 kts 216°
2026-04-24 10:03 -9.47794 37.21380 35019 ft 475 kts 216°
2026-04-24 10:03 -9.53072 37.17310 35032 ft 474 kts 215°
2026-04-24 10:04 -9.58301 37.13276 35030 ft 474 kts 215°
2026-04-24 10:04 -9.63583 37.09199 35034 ft 474 kts 215°
2026-04-24 10:05 -9.68802 37.05168 35043 ft 473 kts 215°
2026-04-24 10:05 -9.74053 37.01112 35047 ft 473 kts 215°
2026-04-24 10:06 -9.81891 36.95055 35053 ft 473 kts 215°
2026-04-24 10:07 -9.87151 36.90988 35056 ft 473 kts 215°
2026-04-24 10:07 -9.92368 36.86952 35054 ft 472 kts 215°
2026-04-24 10:08 -9.97591 36.82910 35064 ft 472 kts 215°
2026-04-24 10:08 -10.02824 36.78859 35066 ft 472 kts 215°
2026-04-24 10:09 -10.08046 36.74814 35065 ft 472 kts 215°
2026-04-24 10:09 -10.13299 36.70744 35076 ft 473 kts 215°
2026-04-24 10:10 -10.18505 36.66708 35083 ft 472 kts 215°
2026-04-24 10:10 -10.23733 36.62653 35086 ft 471 kts 215°
2026-04-24 10:11 -10.28865 36.58672 35089 ft 472 kts 215°
2026-04-24 10:11 -10.34084 36.54621 35088 ft 471 kts 216°
2026-04-24 10:12 -10.39279 36.50587 35091 ft 471 kts 216°
2026-04-24 10:12 -10.44494 36.46536 35093 ft 471 kts 215°
2026-04-24 10:13 -10.49694 36.42495 35097 ft 471 kts 216°
2026-04-24 10:13 -10.54912 36.38438 35094 ft 470 kts 215°
2026-04-24 10:14 -10.60108 36.34396 35092 ft 472 kts 216°
2026-04-24 10:14 -10.65335 36.30328 35091 ft 470 kts 216°
2026-04-24 10:15 -10.70526 36.26288 35092 ft 471 kts 216°
2026-04-24 10:15 -10.75716 36.22245 35084 ft 470 kts 216°
2026-04-24 10:16 -10.80916 36.18192 35088 ft 470 kts 216°
2026-04-24 10:16 -10.86127 36.14130 35080 ft 470 kts 216°
2026-04-24 10:17 -10.91329 36.10073 35082 ft 470 kts 216°
2026-04-24 10:17 -10.96487 36.06048 35078 ft 469 kts 216°
2026-04-24 10:18 -11.01700 36.01978 35080 ft 468 kts 216°
2026-04-24 10:18 -11.06872 35.97939 35075 ft 469 kts 216°
2026-04-24 10:19 -11.12041 35.93901 35079 ft 468 kts 216°
2026-04-24 10:19 -11.17213 35.89858 35074 ft 469 kts 216°
2026-04-24 10:20 -11.22376 35.85820 35080 ft 467 kts 216°
2026-04-24 10:20 -11.27552 35.81770 35075 ft 468 kts 216°
2026-04-24 10:21 -11.32732 35.77715 35079 ft 469 kts 216°
2026-04-24 10:21 -11.37893 35.73673 35072 ft 468 kts 216°
2026-04-24 10:22 -11.43065 35.69621 35075 ft 468 kts 216°
2026-04-24 10:22 -11.48198 35.65597 35075 ft 467 kts 216°
2026-04-24 10:23 -11.53385 35.61529 35073 ft 468 kts 216°
2026-04-24 10:23 -11.58528 35.57494 35073 ft 467 kts 216°
2026-04-24 10:24 -11.63671 35.53428 35072 ft 467 kts 216°
2026-04-24 10:24 -11.68796 35.49328 35073 ft 467 kts 216°
2026-04-24 10:25 -11.73896 35.45248 35071 ft 467 kts 216°
2026-04-24 10:25 -11.79031 35.41139 35070 ft 467 kts 216°
2026-04-24 10:26 -11.84143 35.37048 35068 ft 467 kts 216°
2026-04-24 10:26 -11.89240 35.32967 35070 ft 466 kts 216°
2026-04-24 10:27 -11.94351 35.28873 35067 ft 465 kts 216°
2026-04-24 10:27 -11.99447 35.24790 35060 ft 465 kts 217°
2026-04-24 10:28 -12.04540 35.20707 35067 ft 465 kts 217°
2026-04-24 10:28 -12.09635 35.16620 35068 ft 466 kts 217°
2026-04-24 10:29 -12.14736 35.12526 35084 ft 465 kts 217°
2026-04-24 10:29 -12.19832 35.08435 35082 ft 465 kts 217°
2026-04-24 10:30 -12.24926 35.04343 35085 ft 464 kts 217°
2026-04-24 10:30 -12.30034 35.00238 35077 ft 464 kts 217°
2026-04-24 10:31 -12.35122 34.96146 35081 ft 466 kts 217°
2026-04-24 10:31 -12.40182 34.92075 35082 ft 464 kts 217°
2026-04-24 10:32 -12.45262 34.87986 35081 ft 465 kts 217°
2026-04-24 10:32 -12.50362 34.83879 35082 ft 464 kts 217°
2026-04-24 10:33 -12.55443 34.79785 35082 ft 464 kts 217°
2026-04-24 10:33 -12.60520 34.75693 35077 ft 464 kts 216°
2026-04-24 10:34 -12.65705 34.71687 35082 ft 466 kts 216°
2026-04-24 10:34 -12.70846 34.67734 35083 ft 465 kts 216°
2026-04-24 10:35 -12.76013 34.63754 35082 ft 464 kts 216°
2026-04-24 10:35 -12.81202 34.59752 35081 ft 465 kts 216°
2026-04-24 10:36 -12.86336 34.55788 35086 ft 463 kts 216°
2026-04-24 10:36 -12.91487 34.51808 35088 ft 464 kts 216°
2026-04-24 10:37 -12.96666 34.47804 35087 ft 464 kts 216°
2026-04-24 10:37 -13.01839 34.43803 35087 ft 464 kts 216°
2026-04-24 10:38 -13.06986 34.39818 35088 ft 464 kts 216°
2026-04-24 10:38 -13.12143 34.35824 35095 ft 464 kts 216°
2026-04-24 10:39 -13.17281 34.31820 35097 ft 463 kts 217°
2026-04-24 10:39 -13.22370 34.27758 35096 ft 464 kts 217°
2026-04-24 10:40 -13.27482 34.23676 35097 ft 463 kts 217°
2026-04-24 10:40 -13.32547 34.19632 35106 ft 463 kts 217°
2026-04-24 10:41 -13.37644 34.15563 35115 ft 463 kts 217°
2026-04-24 10:41 -13.42755 34.11481 35121 ft 463 kts 217°
2026-04-24 10:42 -13.47843 34.07415 35129 ft 462 kts 217°
2026-04-24 10:42 -13.52900 34.03372 35137 ft 462 kts 217°
2026-04-24 10:43 -13.57982 33.99307 35151 ft 462 kts 217°
2026-04-24 10:43 -13.63074 33.95232 35155 ft 461 kts 217°
2026-04-24 10:44 -13.68152 33.91166 35156 ft 462 kts 217°
2026-04-24 10:44 -13.73185 33.87133 35160 ft 461 kts 217°
2026-04-24 10:45 -13.78259 33.83065 35157 ft 460 kts 217°
2026-04-24 10:45 -13.83479 33.79233 35159 ft 460 kts 212°
2026-04-24 10:46 -13.88923 33.75725 35154 ft 460 kts 212°
2026-04-24 10:46 -13.94349 33.72228 35149 ft 460 kts 212°
2026-04-24 10:47 -13.99754 33.68739 35147 ft 460 kts 212°
2026-04-24 10:47 -14.05179 33.65233 35151 ft 459 kts 212°
2026-04-24 10:48 -14.10614 33.61720 35157 ft 459 kts 212°
2026-04-24 10:48 -14.16034 33.58212 35164 ft 459 kts 212°
2026-04-24 10:49 -14.21460 33.54699 35164 ft 459 kts 212°
2026-04-24 10:49 -14.26879 33.51188 35163 ft 459 kts 212°
2026-04-24 10:50 -14.32316 33.47664 35160 ft 458 kts 212°
2026-04-24 10:50 -14.37735 33.44149 35160 ft 459 kts 212°
2026-04-24 10:51 -14.43145 33.40637 35164 ft 459 kts 212°
2026-04-24 10:51 -14.48542 33.37133 35156 ft 458 kts 212°
2026-04-24 10:52 -14.53942 33.33638 35161 ft 459 kts 212°
2026-04-24 10:52 -14.59376 33.30168 35142 ft 458 kts 212°
2026-04-24 10:53 -14.64788 33.26709 35130 ft 457 kts 212°
2026-04-24 10:53 -14.70237 33.23222 35114 ft 457 kts 212°
2026-04-24 10:54 -14.75618 33.19776 35113 ft 457 kts 212°
2026-04-24 10:54 -14.81060 33.16289 35107 ft 457 kts 212°
2026-04-24 10:55 -14.86452 33.12832 35107 ft 457 kts 212°
2026-04-24 10:55 -14.91881 33.09348 35100 ft 457 kts 212°
2026-04-24 10:56 -14.97309 33.05948 35095 ft 457 kts 210°
2026-04-24 10:56 -15.02826 33.02710 35078 ft 456 kts 210°
2026-04-24 10:57 -15.08373 32.99444 35075 ft 457 kts 210°
2026-04-24 10:57 -15.13924 32.96165 35076 ft 456 kts 211°
2026-04-24 10:58 -15.19445 32.92899 35074 ft 457 kts 211°
2026-04-24 10:58 -15.24945 32.89640 35080 ft 455 kts 211°
2026-04-24 10:59 -15.30448 32.86377 35079 ft 457 kts 211°
2026-04-24 10:59 -15.35994 32.83086 35073 ft 456 kts 211°
2026-04-24 11:00 -15.41510 32.79810 35082 ft 456 kts 211°
2026-04-24 11:00 -15.47002 32.76546 35083 ft 456 kts 211°
2026-04-24 11:01 -15.52524 32.73262 35081 ft 455 kts 211°
2026-04-24 11:01 -15.58015 32.69991 35076 ft 455 kts 212°
2026-04-24 11:02 -15.63279 32.66336 35075 ft 454 kts 216°
2026-04-24 11:02 -15.68496 32.62650 35074 ft 454 kts 215°
2026-04-24 11:03 -15.73756 32.58953 35071 ft 453 kts 215°
2026-04-24 11:03 -15.79000 32.55277 35073 ft 454 kts 215°
2026-04-24 11:04 -15.84219 32.51622 35068 ft 453 kts 215°
2026-04-24 11:04 -15.89461 32.47952 35073 ft 454 kts 215°
2026-04-24 11:05 -15.94685 32.44294 35069 ft 452 kts 215°
2026-04-24 11:05 -15.99940 32.40612 35072 ft 453 kts 215°
2026-04-24 11:06 -16.05152 32.36959 35075 ft 453 kts 215°
2026-04-24 11:06 -16.10372 32.33299 35079 ft 453 kts 216°
2026-04-24 11:07 -16.18245 32.27772 35089 ft 451 kts 216°
2026-04-24 11:07 -16.23466 32.24105 35096 ft 451 kts 216°
2026-04-24 11:08 -16.28644 32.20466 35104 ft 452 kts 216°
2026-04-24 11:08 -16.33867 32.16792 35108 ft 451 kts 216°
2026-04-24 11:09 -16.39084 32.13120 35111 ft 451 kts 216°
2026-04-24 11:09 -16.44272 32.09488 35113 ft 452 kts 214°
2026-04-24 11:10 -16.49613 32.05970 35119 ft 451 kts 214°
2026-04-24 11:10 -16.54897 32.02491 35125 ft 450 kts 214°
2026-04-24 11:11 -16.60231 31.98968 35131 ft 449 kts 214°
2026-04-24 11:11 -16.65492 31.95488 35128 ft 450 kts 214°
2026-04-24 11:12 -16.70808 31.91966 35135 ft 450 kts 214°
2026-04-24 11:12 -16.76075 31.88475 35144 ft 450 kts 214°
2026-04-24 11:13 -16.81398 31.84942 35141 ft 451 kts 215°
2026-04-24 11:13 -16.86677 31.81437 35145 ft 450 kts 215°
2026-04-24 11:14 -16.91972 31.77918 35150 ft 450 kts 215°
2026-04-24 11:14 -16.97258 31.74404 35155 ft 451 kts 215°
2026-04-24 11:15 -17.02553 31.70881 35160 ft 450 kts 215°
2026-04-24 11:15 -17.07828 31.67368 35167 ft 451 kts 215°
2026-04-24 11:16 -17.13158 31.63817 35177 ft 451 kts 215°
2026-04-24 11:16 -17.18432 31.60300 35180 ft 451 kts 215°
2026-04-24 11:17 -17.23756 31.56748 35184 ft 451 kts 215°
2026-04-24 11:17 -17.29017 31.53235 35193 ft 451 kts 215°
2026-04-24 11:18 -17.34302 31.49704 35191 ft 451 kts 215°
2026-04-24 11:18 -17.39595 31.46166 35209 ft 450 kts 215°
2026-04-24 11:19 -17.44914 31.42606 35217 ft 450 kts 215°
2026-04-24 11:19 -17.50198 31.39068 35229 ft 450 kts 216°
2026-04-24 11:20 -17.55482 31.35528 35227 ft 450 kts 215°
2026-04-24 11:20 -17.60737 31.32004 35238 ft 451 kts 216°
2026-04-24 11:21 -17.66020 31.28460 35247 ft 451 kts 216°
2026-04-24 11:21 -17.71330 31.24895 35258 ft 450 kts 216°
2026-04-24 11:22 -17.76611 31.21346 35255 ft 450 kts 216°
2026-04-24 11:22 -17.81861 31.17816 35253 ft 450 kts 216°
2026-04-24 11:23 -17.87162 31.14249 35246 ft 450 kts 216°
2026-04-24 11:23 -17.91992 31.10131 35243 ft 445 kts 230°
2026-04-24 11:24 -17.95965 31.05179 35247 ft 443 kts 232°
2026-04-24 11:24 -17.99879 31.00207 35249 ft 442 kts 233°
2026-04-24 11:25 -18.03801 30.95217 35252 ft 442 kts 233°
2026-04-24 11:25 -18.07707 30.90243 35254 ft 442 kts 233°
2026-04-24 11:26 -18.11631 30.85242 35252 ft 442 kts 233°
2026-04-24 11:26 -18.15533 30.80263 35247 ft 442 kts 233°
2026-04-24 11:27 -18.19423 30.75298 35242 ft 442 kts 233°
2026-04-24 11:27 -18.23346 30.70286 35250 ft 440 kts 233°
2026-04-24 11:28 -18.27224 30.65327 35240 ft 440 kts 233°
2026-04-24 11:28 -18.31110 30.60354 35236 ft 440 kts 233°
2026-04-24 11:29 -18.34982 30.55396 35240 ft 440 kts 233°
2026-04-24 11:29 -18.38877 30.50403 35239 ft 439 kts 233°
2026-04-24 11:30 -18.42746 30.45441 35243 ft 439 kts 233°
2026-04-24 11:30 -18.46614 30.40475 35235 ft 441 kts 233°
2026-04-24 11:31 -18.50495 30.35490 35232 ft 439 kts 233°
2026-04-24 11:31 -18.54382 30.30493 35235 ft 440 kts 234°
2026-04-24 11:32 -18.58241 30.25527 35236 ft 438 kts 234°
2026-04-24 11:32 -18.62107 30.20548 35235 ft 440 kts 233°
2026-04-24 11:33 -18.66000 30.15586 35233 ft 438 kts 233°
2026-04-24 11:33 -18.69889 30.10636 35240 ft 439 kts 233°
2026-04-24 11:34 -18.73765 30.05695 35240 ft 438 kts 233°
2026-04-24 11:34 -18.77654 30.00734 35228 ft 438 kts 234°
2026-04-24 11:35 -18.81520 29.95797 35228 ft 438 kts 233°
2026-04-24 11:35 -18.85412 29.90822 35226 ft 438 kts 233°
2026-04-24 11:36 -18.89276 29.85881 35236 ft 437 kts 234°
2026-04-24 11:36 -18.93157 29.80925 35234 ft 437 kts 232°
2026-04-24 11:37 -18.97423 29.76333 35234 ft 439 kts 229°
2026-04-24 11:37 -19.01752 29.71788 35243 ft 439 kts 229°
2026-04-24 11:38 -19.06102 29.67215 35244 ft 439 kts 229°
2026-04-24 11:38 -19.10396 29.62695 35243 ft 439 kts 229°
2026-04-24 11:39 -19.14726 29.58132 35244 ft 438 kts 229°
2026-04-24 11:39 -19.19064 29.53557 35243 ft 438 kts 229°
2026-04-24 11:40 -19.23365 29.49016 35241 ft 438 kts 229°
2026-04-24 11:40 -19.27681 29.44455 35240 ft 438 kts 229°
2026-04-24 11:41 -19.31992 29.39898 35240 ft 438 kts 229°
2026-04-24 11:41 -19.36281 29.35359 35241 ft 437 kts 229°
2026-04-24 11:42 -19.40576 29.30811 35255 ft 437 kts 229°
2026-04-24 11:42 -19.44887 29.26241 35253 ft 437 kts 229°
2026-04-24 11:43 -19.49179 29.21689 35253 ft 437 kts 229°
2026-04-24 11:43 -19.53481 29.17121 35254 ft 437 kts 229°
2026-04-24 11:44 -19.57766 29.12569 35255 ft 437 kts 229°
2026-04-24 11:44 -19.62055 29.08010 35256 ft 436 kts 229°
2026-04-24 11:45 -19.66347 29.03442 35257 ft 435 kts 229°
2026-04-24 11:45 -19.70616 28.98896 35257 ft 436 kts 229°
2026-04-24 11:46 -19.74877 28.94354 35255 ft 436 kts 229°
2026-04-24 11:46 -19.79174 28.89771 35253 ft 435 kts 229°
2026-04-24 11:47 -19.83420 28.85238 35250 ft 435 kts 229°
2026-04-24 11:47 -19.87692 28.80673 35249 ft 434 kts 229°
2026-04-24 11:48 -19.91949 28.76121 35248 ft 435 kts 229°
2026-04-24 11:48 -19.96201 28.71571 35249 ft 435 kts 229°
2026-04-24 11:49 -20.00480 28.66989 35244 ft 434 kts 229°
2026-04-24 11:49 -20.05288 28.62993 35238 ft 444 kts 215°
2026-04-24 11:50 -20.10709 28.59837 35241 ft 445 kts 214°
2026-04-24 11:50 -20.16167 28.56683 35243 ft 446 kts 214°
2026-04-24 11:51 -20.21620 28.53523 35246 ft 446 kts 214°
2026-04-24 11:51 -20.27098 28.50342 35245 ft 447 kts 214°
2026-04-24 11:52 -20.32550 28.47173 35245 ft 446 kts 214°
2026-04-24 11:52 -20.37999 28.44002 35245 ft 444 kts 214°
2026-04-24 11:53 -20.43412 28.40848 35244 ft 446 kts 214°
2026-04-24 11:53 -20.48855 28.37675 35243 ft 445 kts 214°
2026-04-24 11:54 -20.54304 28.34496 35245 ft 443 kts 214°
2026-04-24 11:54 -20.59732 28.31325 35250 ft 445 kts 214°
2026-04-24 11:55 -20.65159 28.28153 35243 ft 444 kts 214°
2026-04-24 11:55 -20.70594 28.24973 35235 ft 445 kts 214°
2026-04-24 11:56 -20.76047 28.21781 35230 ft 443 kts 214°
2026-04-24 11:56 -20.81440 28.18620 35226 ft 444 kts 214°
2026-04-24 11:57 -20.86874 28.15433 35224 ft 444 kts 214°
2026-04-24 11:57 -20.92296 28.12251 35220 ft 444 kts 214°
2026-04-24 11:58 -20.97728 28.09060 35215 ft 443 kts 214°
2026-04-24 11:58 -21.03156 28.05868 35211 ft 446 kts 214°
2026-04-24 11:59 -21.08559 28.02690 35207 ft 444 kts 214°
2026-04-24 11:59 -21.13978 27.99498 35208 ft 445 kts 214°
2026-04-24 12:00 -21.19415 27.96294 35208 ft 444 kts 214°
2026-04-24 12:00 -21.24831 27.93098 35203 ft 443 kts 214°
2026-04-24 12:01 -21.30243 27.89903 35201 ft 444 kts 214°
2026-04-24 12:01 -21.35680 27.86681 35198 ft 444 kts 214°
2026-04-24 12:02 -21.41080 27.83474 35195 ft 444 kts 214°
2026-04-24 12:02 -21.46506 27.80250 35200 ft 445 kts 214°
2026-04-24 12:03 -21.51900 27.77042 35196 ft 443 kts 214°
2026-04-24 12:03 -21.57266 27.73848 35190 ft 444 kts 214°
2026-04-24 12:04 -21.62671 27.70628 35195 ft 443 kts 214°
2026-04-24 12:04 -21.68072 27.67407 35188 ft 444 kts 214°
2026-04-24 12:05 -21.73475 27.64184 35191 ft 443 kts 214°
2026-04-24 12:05 -21.78870 27.60961 35193 ft 445 kts 214°
2026-04-24 12:06 -21.84275 27.57731 35188 ft 443 kts 214°
2026-04-24 12:06 -21.89649 27.54515 35190 ft 443 kts 214°
2026-04-24 12:07 -21.95048 27.51282 35187 ft 444 kts 214°
2026-04-24 12:07 -22.00444 27.48052 35185 ft 443 kts 214°
2026-04-24 12:08 -22.05842 27.44819 35187 ft 444 kts 214°
2026-04-24 12:08 -22.11234 27.41588 35183 ft 443 kts 214°
2026-04-24 12:09 -22.16619 27.38358 35185 ft 443 kts 214°
2026-04-24 12:09 -22.22016 27.35117 35186 ft 444 kts 214°
2026-04-24 12:10 -22.27409 27.31877 35199 ft 443 kts 215°
2026-04-24 12:11 -22.35521 27.26999 35199 ft 443 kts 214°
2026-04-24 12:11 -22.40915 27.23797 35194 ft 444 kts 214°
2026-04-24 12:12 -22.46319 27.20589 35194 ft 442 kts 215°
2026-04-24 12:12 -22.51723 27.17376 35195 ft 443 kts 214°
2026-04-24 12:13 -22.57118 27.14165 35186 ft 441 kts 214°
2026-04-24 12:13 -22.62504 27.10955 35190 ft 442 kts 214°
2026-04-24 12:14 -22.67938 27.07714 35190 ft 442 kts 215°
2026-04-24 12:14 -22.73311 27.04507 35183 ft 443 kts 214°
2026-04-24 12:15 -22.78695 27.01276 35188 ft 442 kts 215°
2026-04-24 12:15 -22.84078 26.97982 35187 ft 442 kts 215°
2026-04-24 12:16 -22.89443 26.94698 35190 ft 442 kts 215°
2026-04-24 12:16 -22.94798 26.91418 35190 ft 441 kts 215°
2026-04-24 12:17 -23.00161 26.88131 35189 ft 443 kts 215°
2026-04-24 12:17 -23.05493 26.84862 35183 ft 441 kts 215°
2026-04-24 12:18 -23.10832 26.81584 35179 ft 443 kts 215°
2026-04-24 12:18 -23.16221 26.78274 35176 ft 441 kts 215°
2026-04-24 12:19 -23.21582 26.74977 35177 ft 442 kts 215°
2026-04-24 12:19 -23.26926 26.71688 35176 ft 442 kts 215°
2026-04-24 12:20 -23.32252 26.68407 35170 ft 441 kts 215°
2026-04-24 12:20 -23.37607 26.65105 35165 ft 441 kts 216°
2026-04-24 12:21 -23.42975 26.61791 35167 ft 442 kts 215°
2026-04-24 12:21 -23.48323 26.58488 35169 ft 441 kts 215°
2026-04-24 12:22 -23.53672 26.55180 35165 ft 441 kts 216°
2026-04-24 12:22 -23.59027 26.51866 35166 ft 441 kts 215°
2026-04-24 12:23 -23.64354 26.48566 35160 ft 441 kts 215°
2026-04-24 12:23 -23.69711 26.45243 35158 ft 441 kts 215°
2026-04-24 12:24 -23.75044 26.41947 35157 ft 442 kts 215°
2026-04-24 12:24 -23.80403 26.38643 35157 ft 443 kts 215°
2026-04-24 12:25 -23.85768 26.35331 35153 ft 441 kts 216°
2026-04-24 12:25 -23.90918 26.31758 35170 ft 438 kts 219°
2026-04-24 12:26 -23.96057 26.28130 35168 ft 439 kts 218°
2026-04-24 12:26 -24.01157 26.24543 35171 ft 437 kts 218°
2026-04-24 12:27 -24.06302 26.20928 35168 ft 438 kts 218°
2026-04-24 12:27 -24.11444 26.17317 35167 ft 438 kts 218°
2026-04-24 12:28 -24.16608 26.13689 35163 ft 439 kts 218°
2026-04-24 12:28 -24.21720 26.10097 35162 ft 437 kts 219°
2026-04-24 12:29 -24.26849 26.06488 35161 ft 438 kts 218°
2026-04-24 12:29 -24.32000 26.02860 35159 ft 439 kts 218°
2026-04-24 12:30 -24.37121 25.99252 35158 ft 439 kts 219°
2026-04-24 12:30 -24.42257 25.95629 35157 ft 436 kts 218°
2026-04-24 12:31 -24.47402 25.91994 35158 ft 439 kts 219°
2026-04-24 12:31 -24.52510 25.88385 35157 ft 436 kts 219°
2026-04-24 12:32 -24.57657 25.84743 35161 ft 438 kts 218°
2026-04-24 12:32 -24.62656 25.80996 35169 ft 434 kts 223°
2026-04-24 12:33 -24.67433 25.76962 35168 ft 433 kts 223°
2026-04-24 12:33 -24.72226 25.72936 35170 ft 434 kts 223°
2026-04-24 12:34 -24.77049 25.68902 35170 ft 433 kts 223°
2026-04-24 12:34 -24.81822 25.64915 35167 ft 433 kts 223°
2026-04-24 12:35 -24.86634 25.60896 35164 ft 433 kts 223°
2026-04-24 12:35 -24.91440 25.56881 35163 ft 433 kts 223°
2026-04-24 12:36 -24.96235 25.52872 35164 ft 434 kts 222°
2026-04-24 12:36 -25.01019 25.48869 35163 ft 432 kts 223°
2026-04-24 12:37 -25.05842 25.44830 35170 ft 434 kts 223°
2026-04-24 12:37 -25.10608 25.40835 35176 ft 432 kts 223°
2026-04-24 12:38 -25.15408 25.36807 35180 ft 432 kts 223°
2026-04-24 12:38 -25.20162 25.32814 35197 ft 429 kts 223°
2026-04-24 12:39 -25.29729 25.24765 35192 ft 431 kts 223°
2026-04-24 12:40 -25.34495 25.20745 35186 ft 431 kts 224°
2026-04-24 12:40 -25.38593 25.16030 35184 ft 419 kts 239°
2026-04-24 12:41 -25.41848 25.10726 35182 ft 423 kts 234°
2026-04-24 12:41 -25.46115 25.06205 35182 ft 429 kts 226°
2026-04-24 12:42 -25.50656 25.01925 35176 ft 427 kts 225°
2026-04-24 12:42 -25.55186 24.97664 35176 ft 428 kts 226°
2026-04-24 12:43 -25.59728 24.93396 35172 ft 427 kts 225°
2026-04-24 12:43 -25.64244 24.89150 35172 ft 428 kts 226°
2026-04-24 12:44 -25.68782 24.84881 35168 ft 427 kts 225°
2026-04-24 12:44 -25.73323 24.80606 35167 ft 426 kts 225°
2026-04-24 12:45 -25.77866 24.76324 35165 ft 427 kts 225°
2026-04-24 12:45 -25.82375 24.72072 35163 ft 426 kts 225°
2026-04-24 12:46 -25.86944 24.67837 35167 ft 428 kts 225°
2026-04-24 12:46 -25.91511 24.63641 35172 ft 427 kts 225°
2026-04-24 12:47 -25.96086 24.59427 35161 ft 427 kts 225°
2026-04-24 12:47 -26.00670 24.55200 35167 ft 427 kts 225°
2026-04-24 12:48 -26.05256 24.50964 35162 ft 428 kts 225°
2026-04-24 12:48 -26.09816 24.46749 35168 ft 428 kts 225°
2026-04-24 12:49 -26.14400 24.42506 35166 ft 426 kts 225°
2026-04-24 12:49 -26.18947 24.38293 35172 ft 427 kts 225°
2026-04-24 12:50 -26.23519 24.34052 35185 ft 427 kts 225°
2026-04-24 12:50 -26.28071 24.29825 35186 ft 425 kts 225°
2026-04-24 12:51 -26.32625 24.25592 35193 ft 426 kts 225°
2026-04-24 12:51 -26.37174 24.21359 35195 ft 425 kts 225°
2026-04-24 12:52 -26.41728 24.17116 35191 ft 425 kts 225°
2026-04-24 12:52 -26.46258 24.12891 35194 ft 428 kts 225°
2026-04-24 12:53 -26.50812 24.08641 35194 ft 426 kts 225°
2026-04-24 12:53 -26.55374 24.04377 35190 ft 426 kts 225°
2026-04-24 12:54 -26.59895 24.00148 35192 ft 427 kts 225°
2026-04-24 12:54 -26.64452 23.95880 35193 ft 427 kts 225°
2026-04-24 12:55 -26.68996 23.91620 35189 ft 427 kts 225°
2026-04-24 12:55 -26.73532 23.87363 35188 ft 424 kts 225°
2026-04-24 12:56 -26.78057 23.83112 35178 ft 425 kts 225°
2026-04-24 12:56 -26.82572 23.78865 35181 ft 426 kts 225°
2026-04-24 12:57 -26.87094 23.74607 35180 ft 425 kts 225°
2026-04-24 12:57 -26.91603 23.70357 35178 ft 425 kts 225°
2026-04-24 12:58 -26.96157 23.66059 35175 ft 426 kts 225°
2026-04-24 12:58 -27.00677 23.61790 35173 ft 424 kts 225°
2026-04-24 12:59 -27.05157 23.57552 35179 ft 425 kts 225°
2026-04-24 12:59 -27.09667 23.53284 35169 ft 422 kts 225°
2026-04-24 13:00 -27.14182 23.49004 35167 ft 424 kts 225°
2026-04-24 13:00 -27.18714 23.44704 35165 ft 423 kts 225°
2026-04-24 13:01 -27.23185 23.40457 35161 ft 424 kts 225°
2026-04-24 13:01 -27.27702 23.36162 35163 ft 424 kts 225°
2026-04-24 13:02 -27.32179 23.31900 35178 ft 423 kts 225°
2026-04-24 13:02 -27.36676 23.27615 35175 ft 424 kts 226°
2026-04-24 13:03 -27.41179 23.23320 35175 ft 423 kts 226°
2026-04-24 13:03 -27.45644 23.19055 35171 ft 422 kts 225°
2026-04-24 13:04 -27.50105 23.14789 35164 ft 421 kts 225°
2026-04-24 13:04 -27.54584 23.10503 35157 ft 422 kts 226°
2026-04-24 13:05 -27.59045 23.06228 35159 ft 422 kts 225°
2026-04-24 13:05 -27.63503 23.01951 35150 ft 423 kts 225°
2026-04-24 13:06 -27.67941 22.97832 35154 ft 423 kts 223°
2026-04-24 13:06 -27.72572 22.93775 35150 ft 422 kts 223°
2026-04-24 13:07 -27.77230 22.89675 35150 ft 423 kts 223°
2026-04-24 13:07 -27.81873 22.85574 35155 ft 424 kts 223°
2026-04-24 13:08 -27.86497 22.81481 35158 ft 422 kts 223°
2026-04-24 13:08 -27.91151 22.77355 35163 ft 422 kts 223°
2026-04-24 13:09 -27.98058 22.71219 35169 ft 423 kts 223°
2026-04-24 13:09 -28.02698 22.67092 35167 ft 424 kts 224°
2026-04-24 13:10 -28.07309 22.62986 35159 ft 422 kts 223°
2026-04-24 13:10 -28.11939 22.58857 35155 ft 421 kts 223°
2026-04-24 13:11 -28.16546 22.54744 35149 ft 424 kts 223°
2026-04-24 13:11 -28.21185 22.50599 35140 ft 422 kts 224°
2026-04-24 13:12 -28.25788 22.46481 35136 ft 422 kts 223°
2026-04-24 13:12 -28.30411 22.42339 35133 ft 422 kts 223°
2026-04-24 13:13 -28.34991 22.38233 35131 ft 422 kts 223°
2026-04-24 13:13 -28.39615 22.34082 35140 ft 421 kts 224°
2026-04-24 13:14 -28.44190 22.29969 35142 ft 422 kts 224°
2026-04-24 13:14 -28.48808 22.25814 35140 ft 423 kts 224°
2026-04-24 13:15 -28.53380 22.21696 35136 ft 421 kts 224°
2026-04-24 13:15 -28.57984 22.17543 35131 ft 422 kts 224°
2026-04-24 13:16 -28.62570 22.13403 35130 ft 423 kts 224°
2026-04-24 13:16 -28.67170 22.09245 35127 ft 421 kts 224°
2026-04-24 13:17 -28.71762 22.05089 35124 ft 422 kts 224°
2026-04-24 13:17 -28.76366 22.00918 35123 ft 422 kts 224°
2026-04-24 13:18 -28.80953 21.96758 35122 ft 420 kts 224°
2026-04-24 13:18 -28.85518 21.92612 35122 ft 421 kts 224°
2026-04-24 13:19 -28.90093 21.88452 35121 ft 421 kts 224°
2026-04-24 13:19 -28.94663 21.84293 35120 ft 420 kts 224°
2026-04-24 13:20 -28.99237 21.80124 35118 ft 420 kts 224°
2026-04-24 13:20 -29.03811 21.75951 35118 ft 419 kts 224°
2026-04-24 13:21 -29.08367 21.71789 35116 ft 421 kts 224°
2026-04-24 13:21 -29.12958 21.67591 35122 ft 421 kts 224°
2026-04-24 13:22 -29.17496 21.63437 35121 ft 421 kts 224°
2026-04-24 13:22 -29.22077 21.59237 35122 ft 419 kts 224°
2026-04-24 13:23 -29.26621 21.55067 35118 ft 419 kts 224°
2026-04-24 13:23 -29.31164 21.50893 35117 ft 418 kts 224°
2026-04-24 13:24 -29.35699 21.46721 35118 ft 421 kts 224°
2026-04-24 13:24 -29.40244 21.42537 35114 ft 417 kts 224°
2026-04-24 13:25 -29.44776 21.38358 35113 ft 418 kts 224°
2026-04-24 13:25 -29.49308 21.34173 35123 ft 420 kts 224°
2026-04-24 13:26 -29.53840 21.29986 35125 ft 416 kts 224°
2026-04-24 13:26 -29.58333 21.25827 35125 ft 417 kts 224°
2026-04-24 13:27 -29.62840 21.21653 35123 ft 415 kts 224°
2026-04-24 13:27 -29.67369 21.17451 35121 ft 417 kts 224°
2026-04-24 13:28 -29.71860 21.13281 35123 ft 417 kts 224°
2026-04-24 13:28 -29.76361 21.09096 35121 ft 417 kts 224°
2026-04-24 13:29 -29.80885 21.04885 35122 ft 418 kts 224°
2026-04-24 13:29 -29.85390 21.00687 35120 ft 418 kts 224°
2026-04-24 13:30 -29.89887 20.96492 35120 ft 416 kts 224°
2026-04-24 13:30 -29.94387 20.92287 35121 ft 415 kts 224°
2026-04-24 13:31 -29.98871 20.88093 35120 ft 417 kts 224°
2026-04-24 13:31 -30.03356 20.83893 35120 ft 417 kts 224°
2026-04-24 13:32 -30.07856 20.79674 35119 ft 415 kts 224°
2026-04-24 13:32 -30.11999 20.75785 35124 ft 415 kts 224°
2026-04-24 13:33 -30.16499 20.71556 35126 ft 416 kts 224°
2026-04-24 13:33 -30.20745 20.67562 35125 ft 417 kts 224°
2026-04-24 13:34 -30.23228 20.65223 35123 ft 415 kts 224°
2026-04-24 13:34 -30.24572 20.63958 35129 ft 415 kts 224°